Back to catalog

STARLINK-37098

AliveCommunicationsVLEO
NORAD 68192·PAYLOAD·🇺🇸 United States

Launched Mar 14, 2026 from Vandenberg Space Force Base

Loading…

Next Passes (next 24 hours)

TLE

FreshSource: CelesTrak SupGP

Epoch: Sep 14, 2026, 22:26 UTC

1 68192C 26050AB  26257.93520833  .00022704  00000+0  67122-3 0  2576
2 68192  53.1569 103.7078 0001162  87.7445 285.3326 15.34359515    19

Track STARLINK-37098 in real time with AllMySat

Download on the App Store